Tracking 27112 objects as of 27-Mar-2023
HD Live streaming from Space Station
objects crossing your sky now

STARLINK-3603

Track STARLINK-3603 now!
10-day predictions
STARLINK-3603 is classified as:


NORAD ID: 51816
Int'l Code: 2022-017BA
Perigee: 545.9 km
Apogee: 547.8 km
Inclination: 53.2 °
Period: 95.4 minutes
Semi major axis: 6917 km
RCS: Unknown
Launch date: February 25, 2022
Source: United States (US)
Launch site: AIR FORCE WESTERN TEST RANGE (AFWTR)
Your satellite tracking list
Your tracking list is empty




NASA's NSSDC Master Catalog

Two Line Element Set (TLE):
1 51816U 22017BA  23085.83963840 -.00001379  00000-0 -68584-4 0  9999
2 51816  53.2181 132.2669 0001371  74.6122 285.5022 15.08838466 61387
Source of the keplerian elements: AFSPC